This demonstration page uses our WeatherBlox Daily Observations layout. Learn more.

40.92945, -100.16068

Hourly Observations for June 3, 2019

Temp ( °F °C ) Dew Point ( °F °C ) Humidity (%) Winds ( mph kmh ) Pressure ( in mb ) Visibility ( mi km ) Precip ( " mm )
12:15 am 00:15 Mostly Cloudy 65 18.2 56 13.1 72 72 SE 9 15 29.91 1013 10 16.09344 0 0
12:35 am 00:35 Partly Cloudy 64 18 56 13.1 73 73 SE 10 17 29.88 1012 10 16.09344 0 0
12:55 am 00:55 Mostly Cloudy with Light Rain 65 18.4 55 13 71 71 SE 10 17 29.88 1012 10 16.09344 0 0
1:15 am 01:15 Cloudy with Rain 64 17.7 56 13.6 77 77 SE 10 17 29.88 1012 7 11.265408 0.01 0.254
1:35 am 01:35 Mostly Cloudy 63 17.4 57 14.1 81 81 SE 9 15 29.88 1012 10 16.09344 0.01 0.254
1:55 am 01:55 Cloudy 63 17.4 58 14.5 83 83 SSE 7 11 29.91 1013 10 16.09344 0.01 0.254
2:15 am 02:15 Cloudy 63 17 59 15.1 89 89 WNW 21 33 29.97 1015 10 16.09344 0 0
2:35 am 02:35 Cloudy 63 17 57 13.9 82 82 NW 18 30 29.97 1015 10 16.09344 0 0
2:55 am 02:55 Cloudy with Rain 60 15.6 58 14.4 93 93 NNW 12 19 30 1016 10 16.09344 0.02 0.508
3:15 am 03:15 Cloudy with Heavy Rain 59 15.1 58 14.5 96 96 NNW 12 19 30 1016 5 8.04672 0.19 4.826
3:35 am 03:35 Cloudy with Light Rain 59 15.2 58 14.2 94 94 NNE 10 17 29.97 1015 10 16.09344 0.19 4.826
3:55 am 03:55 Cloudy 59 15 58 14.5 97 97 E 6 9 29.94 1014 10 16.09344 0.19 4.826
4:15 am 04:15 Cloudy 59 14.9 58 14.6 98 98 E 7 11 29.94 1014 10 16.09344 0 0
4:35 am 04:35 Partly Cloudy 58 14.5 58 14.2 98 98 SE 6 9 29.91 1013 10 16.09344 0 0
4:55 am 04:55 Clear 58 14.5 58 14.5 100 100 SE 8 13 29.91 1013 10 16.09344 0 0
5:15 am 05:15 Clear 58 14.4 58 14.2 99 99 SSE 8 13 29.91 1013 10 16.09344 0 0
5:35 am 05:35 Partly Cloudy 58 14.5 57 14 97 97 Calm 29.91 1013 10 16.09344 0 0
5:55 am 05:55 Cloudy 58 14.6 57 14.1 97 97 Calm 29.94 1014 10 16.09344 0 0
6:15 am 06:15 Mostly Cloudy 58 14.6 58 14.2 97 97 E 3 6 29.94 1014 10 16.09344 0 0
6:35 am 06:35 Partly Cloudy 58 14.5 57 14.1 97 97 SE 6 9 29.91 1013 10 16.09344 0 0
6:55 am 06:55 Mostly Cloudy 59 14.9 58 14.5 97 97 ESE 7 11 29.94 1014 10 16.09344 0 0
7:15 am 07:15 Cloudy 59 15 58 14.6 97 97 ESE 7 11 29.94 1014 10 16.09344 0 0
7:35 am 07:35 Cloudy 60 15.5 59 15 97 97 SE 6 9 29.94 1014 10 16.09344 0 0
7:55 am 07:55 Cloudy 60 15.6 59 15.2 97 97 SSE 7 11 29.91 1013 10 16.09344 0 0
8:15 am 08:15 Cloudy 61 16.1 61 15.9 99 99 SSE 7 11 29.88 1012 10 16.09344 0 0
8:35 am 08:35 Cloudy 62 16.8 62 16.4 98 98 SSE 7 11 29.88 1012 10 16.09344 0 0
8:55 am 08:55 Cloudy 63 17.1 62 16.4 96 96 SE 9 15 29.88 1012 10 16.09344 0.01 0.254
9:15 am 09:15 Cloudy 64 17.6 62 16.6 94 94 SSE 8 13 29.91 1013 10 16.09344 0 0
9:35 am 09:35 Cloudy 65 18.1 63 17.1 94 94 SE 8 13 29.91 1013 10 16.09344 0 0
9:55 am 09:55 Cloudy 65 18.5 63 17.4 93 93 SE 9 15 29.91 1013 10 16.09344 0 0
10:15 am 10:15 Cloudy 67 19.5 64 18 91 91 SE 9 15 29.91 1013 10 16.09344 0 0
10:35 am 10:35 Cloudy 69 20.3 65 18.3 88 88 SSE 9 15 29.85 1011 10 16.09344 0 0
10:55 am 10:55 Cloudy 70 21.2 66 19 87 87 SSE 10 17 29.85 1011 10 16.09344 0 0
11:15 am 11:15 Cloudy 71 21.5 66 18.9 85 85 SSE 9 15 29.85 1011 10 16.09344 0 0
11:35 am 11:35 Mostly Cloudy 73 22.5 67 19.4 83 83 SSE 10 17 29.85 1011 10 16.09344 0 0
11:55 am 11:55 Partly Cloudy 73 23 67 19.4 80 80 SSE 12 19 29.83 1010 10 16.09344 0 0
12:15 pm 12:15 Partly Cloudy 75 23.7 67 19.5 77 77 SSE 8 13 29.83 1010 10 16.09344 0 0
12:35 pm 12:35 Partly Cloudy 76 24.2 65 18.5 71 71 SSE 13 20 29.83 1010 10 16.09344 0 0
12:55 pm 12:55 Partly Cloudy 76 24.6 66 18.8 70 70 S 10 17 29.83 1010 10 16.09344 0 0
1:15 pm 13:15 Partly Cloudy 77 24.9 66 19 70 70 S 9 15 29.8 1009 10 16.09344 0 0
1:35 pm 13:35 Partly Cloudy 77 25.1 65 18.2 66 66 S 8 13 29.8 1009 10 16.09344 0 0
1:55 pm 13:55 Mostly Cloudy 78 25.6 66 19.1 67 67 S 8 13 29.8 1009 10 16.09344 0 0
2:15 pm 14:15 Partly Cloudy 79 26.1 67 19.2 66 66 S 7 11 29.77 1008 10 16.09344 0 0
2:35 pm 14:35 Partly Cloudy 80 26.4 67 19.5 66 66 S 9 15 29.77 1008 10 16.09344 0 0
2:55 pm 14:55 Mostly Cloudy 80 26.4 65 18.6 62 62 SSE 8 13 29.77 1008 10 16.09344 0 0
3:15 pm 15:15 Mostly Cloudy 81 27.1 68 19.8 64 64 SSE 12 19 29.74 1007 10 16.09344 0 0
3:35 pm 15:35 Cloudy 79 26.1 66 18.8 64 64 SSE 10 17 29.74 1007 10 16.09344 0 0
3:55 pm 15:55 Mostly Cloudy 81 27.3 68 19.9 64 64 SSE 10 17 29.74 1007 10 16.09344 0 0
4:15 pm 16:15 Partly Cloudy 80 26.4 66 18.8 63 63 S 12 19 29.74 1007 10 16.09344 0 0
4:35 pm 16:35 Partly Cloudy 82 27.5 66 18.7 59 59 SSE 13 20 29.71 1006 10 16.09344 0 0
4:55 pm 16:55 Partly Cloudy 82 27.8 65 18.4 57 57 SSE 9 15 29.71 1006 10 16.09344 0 0
5:15 pm 17:15 Partly Cloudy 82 27.5 65 18.4 58 58 S 8 13 29.71 1006 10 16.09344 0 0
5:35 pm 17:35 Partly Cloudy 82 27.5 66 18.8 59 59 S 14 22 29.71 1006 10 16.09344 0 0
5:55 pm 17:55 Partly Cloudy 80 26.9 65 18.6 60 60 SSE 9 15 29.71 1006 10 16.09344 0 0
6:15 pm 18:15 Partly Cloudy 80 26.6 65 18.6 62 62 S 12 19 29.68 1005 10 16.09344 0 0
6:35 pm 18:35 Partly Cloudy 79 26 65 18.3 63 63 S 13 20 29.68 1005 10 16.09344 0 0
6:55 pm 18:55 Partly Cloudy 78 25.4 65 18.5 66 66 S 9 15 29.68 1005 10 16.09344 0 0
7:15 pm 19:15 Sunny 78 25.3 64 17.9 64 64 S 12 19 29.68 1005 10 16.09344 0 0
7:35 pm 19:35 Sunny 77 24.9 64 18 66 66 S 10 17 29.71 1006 10 16.09344 0 0
7:55 pm 19:55 Sunny 76 24.3 65 18.2 69 69 S 7 11 29.71 1006 10 16.09344 0 0
8:15 pm 20:15 Sunny 75 23.7 65 18.3 72 72 SSE 7 11 29.71 1006 10 16.09344 0 0
8:35 pm 20:35 Sunny 74 23.1 65 18.1 74 74 SSE 7 11 29.71 1006 10 16.09344 0 0
8:55 pm 20:55 Sunny 72 22.1 65 18.1 78 78 SSE 6 9 29.71 1006 10 16.09344 0 0
9:15 pm 21:15 Clear 72 22.2 64 18 77 77 SE 5 7 29.71 1006 10 16.09344 0 0
9:35 pm 21:35 Clear 72 22.1 64 17.7 76 76 SE 6 9 29.74 1007 10 16.09344 0 0
9:55 pm 21:55 Clear 71 21.5 65 18.1 81 81 SSE 7 11 29.77 1008 10 16.09344 0 0
10:15 pm 22:15 Clear 71 21.6 65 18.2 81 81 SE 6 9 29.8 1009 10 16.09344 0 0
10:35 pm 22:35 Clear 71 21.8 65 18.4 81 81 SE 7 11 29.8 1009 10 16.09344 0 0
10:55 pm 22:55 Clear 70 20.9 65 18.5 86 86 SSE 7 11 29.8 1009 10 16.09344 0 0
11:15 pm 23:15 Partly Cloudy 71 21.4 60 15.6 70 70 WSW 25 41 29.85 1011 10 16.09344 0 0
11:35 pm 23:35 Cloudy with Rain 65 18.1 59 14.8 81 81 WSW 26 43 29.88 1012 7 11.265408 0 0
11:55 pm 23:55 Mostly Cloudy with Light Rain 64 17.5 59 14.8 84 84 W 18 30 29.85 1011 10 16.09344 0.02 0.508

Powered by AerisWeather